Location: Unspecified
(0.0000°N, 0.0000°E)
Time: 16:20:58
(UTC+00:00)

Envisat - Visible Passes

Search period start: 19 October 2020 00:00
Search period end: 29 October 2020 00:00
Orbit: 764 x 766 km, 98.1° (Epoch: 18 October)

Date Brightness Start Highest point End Pass type
(mag) Time Alt. Az. Time Alt. Az. Time Alt. Az.
19 Oct 4.5 18:02:10 10° S 18:06:59 44° WSW 18:11:48 10° NNW visible
20 Oct 5.5 04:55:02 10° NE 04:59:13 26° ESE 05:03:22 10° SSE visible
21 Oct 5.9 18:28:33 10° SSW 18:32:20 21° WSW 18:36:07 10° NW visible
23 Oct 6.0 04:44:21 10° ENE 04:47:52 19° ESE 04:51:24 10° SSE visible
24 Oct 5.3 18:16:40 10° SSW 18:21:00 29° WSW 18:25:20 10° NW visible
25 Oct 4.7 05:08:31 10° NE 05:13:13 39° ESE 05:17:56 10° S visible
26 Oct 6.4 04:34:01 10° ENE 04:36:33 14° ESE 04:39:05 10° SE visible
26 Oct 6.4 18:43:49 10° SW 18:46:21 14° WSW 18:48:52 10° WNW visible
27 Oct 4.7 18:04:57 10° S 18:09:40 39° WSW 18:14:22 10° NW visible
28 Oct 5.3 04:57:33 10° NE 05:01:53 29° ESE 05:06:13 10° SSE visible
